Weather History for KHPN - November, 2012

Change the Weather History Date:

Wednesday, November 21, 2012

  Actual Average Record
Temperature  
Mean Temperature 42 °F -  
Max Temperature 52 °F 48 °F 63 °F (1991)
Min Temperature 32 °F 34 °F 16 °F (1987)
Degree Days  
Heating Degree Days 23    
Moisture  
Dew Point 29 °F    
Average Humidity 59    
Maximum Humidity 79    
Minimum Humidity 31    
Precipitation  
Precipitation 0.00 in - - ()
Sea Level Pressure  
Sea Level Pressure 30.20 in    
Wind  
Wind Speed 6 mph (NNE)    
Max Wind Speed 9 mph    
Max Gust Speed -    
Visibility 10 miles    
Events      
Averages and records for this station are not official NWS values.
T = Trace of Precipitation, MM = Missing Value Source: NWS Daily Summary

Daily Weather History Graph

Daily Weather History Graph

Search for Another Location

Airport or City:

Trip Planner

Search our weather history database for the weather conditions in past years. The results will help you decide how hot, cold, wet, or windy it might be!

Date:

Astronomy

Nov. 21, 2012 Rise Set
Actual Time 6:50 AM EST 4:31 PM EST
Civil Twilight 6:20 AM EST 5:01 PM EST
Nautical Twilight 5:46 AM EST 5:34 PM EST
Astronomical Twilight 5:13 AM EST 6:07 PM EST
Moon 12:49 PM EST (11/21) 12:03 AM EST (11/21)
Length of Visible Light 10h 41m
Length of Day
9h 41m
First Quarter, 61% of the Moon is Illuminated
Nov 21
First Quarter
Nov 28
Full
Dec 6
Last Quarter
Dec 13
New
Dec 20
First Quarter

Hourly Weather History & Observations

Time (EST) Temp. Windchill Dew Point Humidity Pressure Visibility Wind Dir Wind Speed Gust Speed Precip Events Conditions
12:56 AM 41.0 °F 37.1 °F 28.0 °F 60% 30.14 in 10.0 mi NNE 5.8 mph - N/A   Clear
1:56 AM 41.0 °F 37.1 °F 27.0 °F 57% 30.15 in 10.0 mi NNE 5.8 mph - N/A   Clear
2:56 AM 39.9 °F 37.8 °F 28.0 °F 63% 30.16 in 10.0 mi NNE 3.5 mph - N/A   Clear
3:56 AM 39.0 °F 35.7 °F 28.9 °F 67% 30.16 in 10.0 mi NNE 4.6 mph - N/A   Clear
4:56 AM 36.0 °F 31.1 °F 28.0 °F 73% 30.18 in 10.0 mi North 5.8 mph - N/A   Clear
5:56 AM 35.1 °F 30.1 °F 27.0 °F 72% 30.19 in 10.0 mi NNW 5.8 mph - N/A   Clear
6:56 AM 32.0 °F 26.4 °F 26.1 °F 79% 30.20 in 10.0 mi North 5.8 mph - N/A   Clear
7:56 AM 39.0 °F 32.8 °F 27.0 °F 62% 30.21 in 10.0 mi North 9.2 mph - N/A   Clear
8:56 AM 44.1 °F 39.5 °F 27.0 °F 51% 30.22 in 10.0 mi North 8.1 mph - N/A   Clear
9:56 AM 46.9 °F - 30.0 °F 52% 30.22 in 10.0 mi NE 6.9 mph - N/A   Clear
10:56 AM 50.0 °F - 32.0 °F 50% 30.21 in 10.0 mi NNE 9.2 mph - N/A   Clear
11:56 AM 51.1 °F - 24.1 °F 35% 30.20 in 10.0 mi NNE 8.1 mph - N/A   Clear
12:56 PM 52.0 °F - 21.9 °F 31% 30.18 in 10.0 mi East 5.8 mph - N/A   Clear
1:56 PM 51.1 °F - 33.1 °F 50% 30.17 in 10.0 mi SE 6.9 mph - N/A   Clear
2:56 PM 51.8 °F - 33.8 °F 50% 30.16 in 10.0 mi SE 4.6 mph - N/A   Clear
3:56 PM 46.9 °F - 33.1 °F 59% 30.18 in 10.0 mi SSE 4.6 mph - N/A   Clear
4:56 PM 43.0 °F - 32.0 °F 65% 30.20 in 10.0 mi Calm Calm - N/A   Clear
5:56 PM 42.1 °F - 32.0 °F 67% 30.21 in 10.0 mi Calm Calm - N/A   Clear
6:56 PM 39.9 °F 36.7 °F 32.0 °F 73% 30.24 in 10.0 mi WNW 4.6 mph - N/A   Clear
7:56 PM 39.0 °F 35.7 °F 30.9 °F 73% 30.24 in 10.0 mi WNW 4.6 mph - N/A   Clear
8:56 PM 37.0 °F 32.4 °F 26.1 °F 65% 30.25 in 10.0 mi NNW 5.8 mph - N/A   Clear
9:56 PM 43.0 °F 39.5 °F 26.1 °F 51% 30.24 in 10.0 mi NE 5.8 mph - N/A   Clear
10:56 PM 42.1 °F 38.4 °F 28.0 °F 58% 30.23 in 10.0 mi NNE 5.8 mph - N/A   Clear
11:56 PM 42.1 °F 38.4 °F 30.0 °F 62% 30.23 in 10.0 mi NNE 5.8 mph - N/A   Clear